Location: Newark
(60.0000°N, 100.0000°E)
Time: 18:05:50
(UTC+00:00)

N. Korean satellite - Visible Passes

Search period start: 19 November 2019 00:00
Search period end: 29 November 2019 00:00
Orbit: 456 x 506 km, 97.2° (Epoch: 18 November)

Date Brightness Start Highest point End Pass type
(mag) Time Alt. Az. Time Alt. Az. Time Alt. Az.
19 Nov 7.8 10:32:42 10° S 10:36:15 46° W 10:39:51 10° NNW visible
19 Nov 10.3 21:51:24 10° ENE 21:52:13 11° E 21:53:02 10° E visible
19 Nov 7.2 23:22:41 10° NNE 23:26:25 62° ESE 23:30:04 10° S visible
20 Nov 6.8 10:07:06 10° SSE 10:10:47 78° WSW 10:14:32 10° NNW visible
20 Nov 10.1 11:43:04 10° WSW 11:44:51 13° W 11:46:38 10° NW visible
20 Nov 8.3 22:57:25 10° NNE 23:00:55 37° E 23:04:22 10° SSE visible
21 Nov 7.3 00:30:54 10° N 00:34:18 34° WNW 00:37:40 10° SW visible
21 Nov 6.6 09:41:45 10° SSE 09:45:24 63° ENE 09:49:07 10° N visible
21 Nov 9.5 11:16:20 10° SW 11:19:10 20° W 11:22:01 10° NW visible
21 Nov 9.2 22:32:18 10° NE 22:35:20 23° E 22:38:19 10° SE visible
22 Nov 6.7 00:05:21 10° N 00:09:01 55° WNW 00:12:37 10° SW visible
22 Nov 8.6 10:50:12 10° SSW 10:53:33 32° W 10:56:58 10° NNW visible
22 Nov 9.9 22:07:31 10° NE 22:09:39 15° E 22:11:47 10° ESE visible
22 Nov 6.6 23:39:54 10° NNE 23:43:39 89° ESE 23:47:19 10° SSW visible
23 Nov 7.5 10:24:24 10° S 10:28:01 54° WSW 10:31:43 10° NNW visible
23 Nov 7.5 23:14:32 10° NNE 23:18:12 53° E 23:21:47 10° S visible
24 Nov 6.6 09:58:52 10° SSE 10:02:35 89° ENE 10:06:21 10° NNW visible
24 Nov 9.9 11:34:20 10° WSW 11:36:32 15° W 11:38:47 10° NW visible
24 Nov 8.6 22:49:18 10° NNE 22:52:39 31° E 22:55:58 10° SSE visible
25 Nov 7.1 00:22:39 10° N 00:26:08 39° WNW 00:29:34 10° SW visible
25 Nov 6.8 09:33:35 10° SE 09:37:13 53° ENE 09:40:52 10° N visible
25 Nov 9.2 11:07:50 10° SSW 11:10:53 24° W 11:13:57 10° NW visible
25 Nov 9.4 22:24:15 10° NE 22:27:02 20° E 22:29:47 10° SE visible
25 Nov 6.6 23:57:08 10° N 00:00:49 64° WNW 00:04:26 10° SSW visible
26 Nov 8.2 10:41:48 10° SSW 10:45:17 38° W 10:48:49 10° NNW visible
26 Nov 10.1 21:59:41 10° ENE 22:01:20 12° E 22:02:57 10° ESE visible
26 Nov 6.8 23:31:41 10° NNE 23:35:24 76° ESE 23:39:03 10° S visible
27 Nov 7.1 10:16:05 10° S 10:19:46 64° WSW 10:23:30 10° NNW visible
27 Nov 10.2 11:52:54 10° W 11:53:56 11° W 11:54:59 10° WNW visible
27 Nov 7.8 23:06:21 10° NNE 23:09:55 44° E 23:13:25 10° S visible
28 Nov 7.5 00:39:58 10° N 00:43:13 29° WNW 00:46:23 10° WSW visible
28 Nov 6.6 09:50:39 10° SSE 09:54:21 76° ENE 09:58:05 10° NNW visible
28 Nov 9.7 11:25:40 10° SW 11:28:12 17° W 11:30:47 10° NW visible
28 Nov 8.8 22:41:09 10° NNE 22:44:20 27° E 22:47:28 10° SSE visible
